Location: Unspecified
(0.0000°N, 0.0000°E)
Time: 17:52:59
(UTC+00:00)

Vanguard 1 - Pass Details

Date: 23 April 2026
Orbit: 654 x 3817 km, 34.2° (Epoch: 18 May)

Event Time Altitude Azimuth Distance (km) Brightness Sun altitude
Rises 19:47:16 0° 257° (WSW) 5,399 14.8 -26.5°
Reaches altitude 10° 19:50:29 10° 263° (W) 4,762 14.4 -27.3°
Maximum altitude 20:04:21 45° 331° (NNW) 3,885 13.2 -30.7°
Drops below altitude 10° 20:25:23 10° 38° (NE) 6,903 14.1 -35.7°
Sets 20:31:29 0° 45° (NE) 7,923 14.5 -37.2°
